W4GHW Weather Reports


Display with metric or nautical units.
time (UTC)temp
F
wind
direction
speed
MPH
gust
MPH
rain 1hr
in
rain 24hr
in
rain mn
in
humidity
%
barometer
mb
20260903182514 90 137 4.0 8.0 0.00 0.00 0.00 56 1016.8
20260903182013 90 116 4.0 12.0 0.00 0.00 0.00 57 1016.9
20260903181815 91 96 4.0 12.0 0.00 0.00 0.00 54 1017.9
20260903181508 90 138 3.0 12.0 0.00 0.00 0.00 57 1016.9
20260903181009 91 63 3.0 12.0 0.00 0.00 0.00 55 1017.0
20260903180517 91 83 4.0 12.0 0.00 0.00 0.00 54 1017.0
20260903180337 92 93 6.0 12.0 0.00 0.00 0.00 53 1018.1
20260903180050 92 146 6.0 12.0 0.00 0.00 0.00 54 1017.1
20260903175549 91 109 4.0 14.0 0.00 0.00 0.00 54 1017.1
20260903175052 91 119 6.0 14.0 0.00 0.00 0.00 54 1017.1
20260903174818 91 121 3.0 11.0 0.00 0.00 0.00 57 1018.1
20260903174550 90 82 4.0 11.0 0.00 0.00 0.00 58 1017.2
20260903174050 90 155 5.0 12.0 0.00 0.00 0.00 57 1017.1
20260903173545 89 74 5.0 12.0 0.00 0.00 0.00 59 1017.3
20260903173321 90 118 2.0 12.0 0.00 0.00 0.00 58 1018.2
20260903173043 89 360 3.0 12.0 0.00 0.00 0.00 59 1017.2
20260903172541 89 121 7.0 12.0 0.00 0.00 0.00 61 1017.3
20260903172038 89 124 3.0 10.0 0.00 0.00 0.00 59 1017.4
20260903171819 89 161 4.0 10.0 0.00 0.00 0.00 60 1018.3
20260903171536 88 80 5.0 10.0 0.00 0.00 0.00 60 1017.4
20260903171124 88 141 4.0 10.0 0.00 0.00 0.00 60 1017.4
20260903170524 88 90 3.0 9.0 0.00 0.00 0.00 65 1017.4
20260903170352 88 113 4.0 9.0 0.00 0.00 0.00 63 1018.4
20260903170105 88 53 3.0 9.0 0.00 0.00 0.00 62 1017.5
20260903165555 88 61 4.0 6.0 0.00 0.00 0.00 62 1017.6
20260903165056 88 141 2.0 9.0 0.00 0.00 0.00 64 1017.6
20260903164829 89 80 4.0 9.0 0.00 0.00 0.00 64 1018.7
20260903164550 88 195 3.0 9.0 0.00 0.00 0.00 64 1017.6
20260903164047 88 21 2.0 8.0 0.00 0.00 0.00 64 1017.8
20260903163538 87 103 3.0 9.0 0.00 0.00 0.00 67 1017.9
20260903162058 88 59 2.0 9.0 0.00 0.00 0.00 63 1018.0
20260903161827 89 38 6.0 9.0 0.00 0.00 0.00 64 1018.9
20260903161556 88 133 2.0 8.0 0.00 0.00 0.00 63 1018.0
20260903161055 87 57 3.0 9.0 0.00 0.00 0.00 64 1018.1
20260903160555 87 147 3.0 11.0 0.00 0.00 0.00 66 1018.2
20260903160337 87 125 5.0 11.0 0.00 0.00 0.00 65 1019.2
20260903160037 87 50 4.0 10.0 0.00 0.00 0.00 64 1018.2
20260903155539 87 36 3.0 10.0 0.00 0.00 0.00 65 1018.3
20260903155041 87 31 3.0 9.0 0.00 0.00 0.00 67 1018.2
20260903154824 87 101 3.0 9.0 0.00 0.00 0.00 65 1019.3
20260903154547 87 123 4.0 9.0 0.00 0.00 0.00 67 1018.3
20260903154050 86 50 2.0 8.0 0.00 0.00 0.00 67 1018.4
20260903153555 86 69 4.0 10.0 0.00 0.00 0.00 68 1018.5
20260903153314 87 97 3.0 10.0 0.00 0.00 0.00 68 1019.5
20260903153107 87 64 4.0 10.0 0.00 0.00 0.00 66 1018.5
20260903152555 86 128 4.0 9.0 0.00 0.00 0.00 68 1018.5
20260903152059 86 106 3.0 8.0 0.00 0.00 0.00 70 1018.4
20260903151817 86 114 4.0 10.0 0.00 0.00 0.00 70 1019.4
20260903151540 85 118 3.0 10.0 0.00 0.00 0.00 70 1018.5
20260903151043 85 55 4.0 10.0 0.00 0.00 0.00 70 1018.4
20260903150545 85 46 2.0 8.0 0.00 0.00 0.00 72 1018.5
20260903150320 86 97 3.0 8.0 0.00 0.00 0.00 72 1019.4
20260903150101 86 105 2.0 8.0 0.00 0.00 0.00 72 1018.4
20260903145549 85 113 1.0 6.0 0.00 0.00 0.00 73 1018.5
20260903145055 85 61 1.0 7.0 0.00 0.00 0.00 73 1018.5
20260903144841 85 100 2.0 7.0 0.00 0.00 0.00 74 1019.4
20260903144541 84 30 2.0 7.0 0.00 0.00 0.00 74 1018.5
20260903144042 84 60 2.0 9.0 0.00 0.00 0.00 74 1018.4
20260903143544 83 117 2.0 9.0 0.00 0.00 0.00 76 1018.3
20260903143326 84 115 4.0 9.0 0.00 0.00 0.00 76 1019.3
20260903143047 83 93 2.0 6.0 0.00 0.00 0.00 77 1018.4
20260903142532 83 64 3.0 6.0 0.00 0.00 0.00 76 1018.4
20260903142028 84 58 3.0 8.0 0.00 0.00 0.00 75 1018.4
20260903141832 85 15 3.0 8.0 0.00 0.00 0.00 75 1019.4
20260903141537 84 88 2.0 6.0 0.00 0.00 0.00 76 1018.4
20260903141023 83 57 1.0 4.0 0.00 0.00 0.00 78 1018.5
20260903140518 82 21 0.0 6.0 0.00 0.00 0.00 80 1018.5
20260903140321 82 144 0.0 6.0 0.00 0.00 0.00 80 1019.4
20260903140016 82 37 2.0 8.0 0.00 0.00 0.00 80 1018.5
20260903135511 82 21 2.0 8.0 0.00 0.00 0.00 81 1018.5
20260903135011 81 5 1.0 5.0 0.00 0.00 0.00 81 1018.4
20260903134825 82 346 2.0 5.0 0.00 0.00 0.00 81 1019.4
20260903134506 81 28 2.0 5.0 0.00 0.00 0.00 82 1018.4
20260903134059 80 16 1.0 6.0 0.00 0.00 0.00 82 1018.3
20260903134001 80 355 1.0 6.0 0.00 0.00 0.00 83 1018.4
20260903133551 80 82 2.0 7.0 0.00 0.00 0.00 83 1018.5
20260903133352 81 61 3.0 7.0 0.00 0.00 0.00 83 1019.5
20260903133024 80 121 4.0 7.0 0.00 0.00 0.00 83 1018.5
20260903132522 80 77 2.0 6.0 0.00 0.00 0.00 84 1018.5
20260903132015 80 24 2.0 5.0 0.00 0.00 0.00 85 1018.5
20260903131815 80 21 2.0 5.0 0.00 0.00 0.00 85 1019.3
20260903131513 79 49 1.0 5.0 0.00 0.00 0.00 85 1018.5
20260903131010 79 46 2.0 5.0 0.00 0.00 0.00 86 1018.4
20260903130512 78 40 1.0 6.0 0.00 0.00 0.00 87 1018.6
20260903130323 79 5 2.0 6.0 0.00 0.00 0.00 86 1019.5
20260903130003 78 42 3.0 6.0 0.00 0.00 0.00 86 1018.5
20260903125559 78 65 1.0 6.0 0.00 0.00 0.00 87 1018.5
20260903125501 78 71 0.0 5.0 0.00 0.00 0.00 88 1018.5
20260903125058 77 64 1.0 5.0 0.00 0.00 0.00 88 1018.4
20260903124827 78 323 2.0 5.0 0.00 0.00 0.00 89 1019.3
20260903124555 77 355 1.0 4.0 0.00 0.00 0.00 89 1018.3
20260903124049 76 19 0.0 4.0 0.00 0.00 0.00 90 1018.3
20260903123541 76 327 1.0 4.0 0.00 0.00 0.00 91 1018.3
20260903123335 76 81 1.0 4.0 0.00 0.00 0.00 92 1019.3
20260903123015 75 29 1.0 4.0 0.00 0.00 0.00 92 1018.2
20260903122513 75 26 2.0 4.0 0.00 0.00 0.00 92 1018.2
20260903122011 74 67 1.0 4.0 0.00 0.00 0.00 92 1018.1
20260903121840 75 355 1.0 4.0 0.00 0.00 0.00 92 1019.0
20260903121543 74 5 1.0 4.0 0.00 0.00 0.00 92 1018.1
20260903121041 74 24 0.0 2.0 0.00 0.00 0.00 92 1018.2
20260903120537 74 17 0.0 2.0 0.00 0.00 0.00 92 1018.1
20260903120328 74 17 0.0 2.0 0.00 0.00 0.00 92 1019.0
20260903120033 74 17 0.0 2.0 0.00 0.00 0.00 92 1018.0
20260903115525 74 360 1.0 4.0 0.00 0.00 0.00 92 1017.9
20260903115021 74 10 0.0 4.0 0.00 0.00 0.00 92 1017.9
20260903114832 74 10 1.0 4.0 0.00 0.00 0.00 92 1018.9
20260903114517 73 5 0.0 0.0 0.00 0.00 0.00 92 1017.9
20260903114019 73 5 0.0 2.0 0.00 0.00 0.00 92 1017.7
20260903113511 73 355 0.0 2.0 0.00 0.00 0.00 92 1017.6
20260903113318 74 355 1.0 2.0 0.00 0.00 0.00 92 1018.5
20260903113103 73 355 1.0 2.0 0.00 0.00 0.00 92 1017.6
20260903112503 73 355 0.0 1.0 0.00 0.00 0.00 92 1017.5
20260903112059 73 355 0.0 1.0 0.00 0.00 0.00 92 1017.5
20260903112001 73 355 0.0 1.0 0.00 0.00 0.00 92 1017.5
20260903111826 74 355 0.0 1.0 0.00 0.00 0.00 92 1018.3
20260903111604 73 355 0.0 0.0 0.00 0.00 0.00 91 1017.3
20260903111053 73 355 0.0 0.0 0.00 0.00 0.00 91 1017.2
20260903110551 73 355 0.0 0.0 0.00 0.00 0.00 91 1017.1
20260903110327 74 355 0.0 0.0 0.00 0.00 0.00 91 1018.1
20260903110047 73 355 0.0 0.0 0.00 0.00 0.00 91 1017.1
20260903105545 73 355 0.0 0.0 0.00 0.00 0.00 91 1017.1
20260903105043 73 355 0.0 0.0 0.00 0.00 0.00 91 1017.1
20260903104826 74 355 0.0 0.0 0.00 0.00 0.00 91 1018.1
20260903104559 73 355 0.0 0.0 0.00 0.00 0.00 91 1017.1
20260903104034 74 355 0.0 0.0 0.00 0.00 0.00 91 1017.1
20260903103531 73 355 0.0 0.0 0.00 0.00 0.00 91 1017.1
20260903103326 74 355 0.0 0.0 0.00 0.00 0.00 91 1018.0
20260903103027 74 355 0.0 0.0 0.00 0.00 0.00 91 1017.0
20260903102525 74 355 0.0 0.0 0.00 0.00 0.00 91 1016.9
20260903102023 74 355 0.0 0.0 0.00 0.00 0.00 91 1016.9
20260903101825 74 355 0.0 0.0 0.00 0.00 0.00 91 1017.8
20260903101526 74 355 0.0 0.0 0.00 0.00 0.00 91 1016.8
20260903101019 74 355 0.0 0.0 0.00 0.00 0.00 91 1016.9
20260903100517 74 355 0.0 0.0 0.00 0.00 0.00 90 1016.8
20260903100326 74 355 0.0 0.0 0.00 0.00 0.00 91 1017.7
20260903100015 74 355 0.0 0.0 0.00 0.00 0.00 91 1016.8
20260903095512 74 355 0.0 0.0 0.00 0.00 0.00 91 1016.8
20260903095011 74 355 0.0 0.0 0.00 0.00 0.00 91 1016.7
20260903094825 75 355 0.0 0.0 0.00 0.00 0.00 90 1017.6
20260903094509 74 22 0.0 0.0 0.00 0.00 0.00 90 1016.8
20260903094007 74 22 0.0 0.0 0.00 0.00 0.00 90 1016.8
20260903093504 74 22 0.0 0.0 0.00 0.00 0.00 90 1016.8
20260903093326 75 22 0.0 0.0 0.00 0.00 0.00 90 1017.8
20260903093105 75 22 0.0 0.0 0.00 0.00 0.00 90 1016.9
20260903093003 75 22 0.0 0.0 0.00 0.00 0.00 90 1016.8
20260903092559 75 123 0.0 0.0 0.00 0.00 0.00 90 1016.9
20260903092501 75 123 0.0 0.0 0.00 0.00 0.00 90 1016.9
20260903092057 75 123 0.0 0.0 0.00 0.00 0.00 90 1016.8
20260903091825 75 123 0.0 0.0 0.00 0.00 0.00 90 1017.7
20260903091556 75 123 0.0 0.0 0.00 0.00 0.00 90 1016.8
20260903091501 75 123 0.0 0.0 0.00 0.00 0.00 90 1016.8
20260903091004 75 123 0.0 0.0 0.00 0.00 0.00 90 1016.7
20260903090511 75 123 0.0 0.0 0.00 0.00 0.00 90 1016.7
20260903090326 75 123 0.0 0.0 0.00 0.00 0.00 89 1017.7
20260903090019 75 123 0.0 0.0 0.00 0.00 0.00 89 1016.8
20260903085516 75 123 0.0 0.0 0.00 0.00 0.00 89 1016.8
20260903085022 75 123 0.0 0.0 0.00 0.00 0.00 89 1016.7
20260903084826 76 123 0.0 0.0 0.00 0.00 0.00 89 1017.8
20260903084540 75 123 0.0 0.0 0.00 0.00 0.00 89 1016.8
20260903084027 75 123 0.0 0.0 0.00 0.00 0.00 89 1016.9
20260903083529 75 123 0.0 0.0 0.00 0.00 0.00 89 1016.8
20260903083327 76 123 0.0 0.0 0.00 0.00 0.00 89 1017.9
20260903083031 75 123 0.0 0.0 0.00 0.00 0.00 89 1016.8
20260903082541 76 123 0.0 0.0 0.00 0.00 0.00 89 1016.8
20260903082043 76 123 0.0 0.0 0.00 0.00 0.00 89 1016.8
20260903081826 76 123 0.0 0.0 0.00 0.00 0.00 88 1017.7
20260903081601 76 123 0.0 0.0 0.00 0.00 0.00 88 1016.7
20260903081046 76 123 0.0 0.0 0.00 0.00 0.00 88 1016.7
20260903080553 76 123 0.0 2.0 0.00 0.00 0.00 88 1016.7
20260903080326 76 136 0.0 2.0 0.00 0.00 0.00 88 1017.7
20260903080055 76 136 0.0 2.0 0.00 0.00 0.00 88 1016.7
20260903075559 76 136 0.0 1.0 0.00 0.00 0.00 88 1016.7
20260903075503 76 136 0.0 1.0 0.00 0.00 0.00 88 1016.7
20260903075008 76 136 0.0 1.0 0.00 0.00 0.00 88 1016.7
20260903074826 77 136 0.0 1.0 0.00 0.00 0.00 88 1017.7
20260903074510 76 136 0.0 1.0 0.00 0.00 0.00 88 1016.8
20260903074018 76 136 0.0 1.0 0.00 0.00 0.00 88 1016.8
20260903073521 76 136 0.0 1.0 0.00 0.00 0.00 87 1016.8
20260903073325 77 136 0.0 0.0 0.00 0.00 0.00 87 1017.7
20260903073026 76 136 0.0 1.0 0.00 0.00 0.00 87 1016.8
20260903072528 76 136 0.0 2.0 0.00 0.00 0.00 87 1016.8
20260903072031 76 134 0.0 2.0 0.00 0.00 0.00 87 1016.9
20260903071845 77 139 0.0 2.0 0.00 0.00 0.00 87 1017.9
20260903071511 76 139 0.0 2.0 0.00 0.00 0.00 87 1016.9
20260903071012 77 138 0.0 2.0 0.00 0.00 0.00 86 1016.9
20260903070519 77 122 1.0 3.0 0.00 0.00 0.00 86 1017.0
20260903070323 77 128 1.0 3.0 0.00 0.00 0.00 86 1018.0
20260903070024 77 115 0.0 3.0 0.00 0.00 0.00 86 1017.0
20260903065523 77 109 1.0 2.0 0.00 0.00 0.00 86 1017.1
20260903065022 77 132 0.0 1.0 0.00 0.00 0.00 86 1017.2
20260903064819 77 132 0.0 1.0 0.00 0.00 0.00 86 1018.2
20260903064522 77 132 0.0 1.0 0.00 0.00 0.00 85 1017.1
20260903064033 77 132 0.0 1.0 0.00 0.00 0.00 85 1017.2
20260903063531 77 132 0.0 0.0 0.00 0.00 0.00 85 1017.1
20260903063318 77 132 0.0 0.0 0.00 0.00 0.00 85 1018.2
20260903063008 77 132 0.0 1.0 0.00 0.00 0.00 85 1017.3
20260903062512 77 132 0.0 1.0 0.00 0.00 0.00 85 1017.4
20260903062017 77 132 0.0 2.0 0.00 0.00 0.00 84 1017.4
20260903061816 78 132 0.0 2.0 0.00 0.00 0.00 84 1018.4
20260903061514 77 132 0.0 2.0 0.00 0.00 0.00 84 1017.4
20260903061006 77 130 0.0 3.0 0.00 0.00 0.00 84 1017.4
20260903060503 78 130 1.0 3.0 0.00 0.00 0.00 84 1017.4
20260903060324 78 153 1.0 2.0 0.00 0.00 0.00 84 1018.5
20260903060057 78 136 0.0 2.0 0.00 0.00 0.00 84 1017.4
20260903055556 78 126 0.0 2.0 0.00 0.00 0.00 83 1017.5
20260903055050 78 148 0.0 2.0 0.00 0.00 0.00 83 1017.5
20260903054829 78 148 0.0 2.0 0.00 0.00 0.00 83 1018.5
20260903054553 78 117 0.0 2.0 0.00 0.00 0.00 83 1017.6
20260903054045 78 144 0.0 2.0 0.00 0.00 0.00 83 1017.5
20260903053540 78 121 0.0 2.0 0.00 0.00 0.00 83 1017.6
20260903053317 79 117 0.0 1.0 0.00 0.00 0.00 83 1018.6
20260903053038 78 119 0.0 1.0 0.00 0.00 0.00 82 1017.6
20260903052529 78 139 0.0 3.0 0.00 0.00 0.00 82 1017.8
20260903052028 78 139 0.0 2.0 0.00 0.00 0.00 82 1017.7
20260903051822 79 124 0.0 2.0 0.00 0.00 0.00 82 1018.7
20260903051523 78 142 0.0 2.0 0.00 0.00 0.00 82 1017.6
20260903051018 79 144 0.0 1.0 0.00 0.00 0.00 81 1017.6
20260903050517 79 141 0.0 1.0 0.00 0.00 0.00 81 1017.7
20260903050328 79 141 0.0 1.0 0.00 0.00 0.00 81 1018.7
20260903050034 79 142 0.0 2.0 0.00 0.00 0.00 81 1017.6
20260903045509 79 126 0.0 2.0 0.00 0.00 0.00 81 1017.6
20260903045058 79 121 0.0 3.0 0.00 0.00 0.00 80 1017.4
20260903045006 79 117 0.0 3.0 0.00 0.00 0.00 80 1017.5
20260903044853 80 117 1.0 3.0 0.00 0.00 0.00 80 1018.5
20260903044544 79 123 1.0 3.0 0.00 0.00 0.00 80 1017.6
20260903044035 79 135 0.0 2.0 0.00 0.00 0.00 80 1017.5
20260903043528 79 140 0.0 3.0 0.00 0.00 0.00 79 1017.6
20260903043321 80 117 1.0 4.0 0.00 0.00 0.00 79 1018.5
20260903043024 79 130 1.0 4.0 0.00 0.00 0.00 79 1017.5
20260903042522 79 128 1.0 4.0 0.00 0.00 0.00 79 1017.5
20260903042020 79 146 1.0 4.0 0.00 0.00 0.00 79 1017.4
20260903041826 80 128 1.0 4.0 0.00 0.00 0.00 79 1018.5
20260903041520 80 145 1.0 4.0 0.00 0.00 0.00 78 1017.5
20260903041012 80 123 1.0 3.0 0.00 0.00 0.00 78 1017.5
20260903040508 80 135 1.0 3.0 0.00 0.00 0.00 78 1017.5
20260903040333 80 141 1.0 3.0 0.00 0.00 0.00 78 1018.5
20260903040057 80 144 1.0 4.0 0.00 0.00 0.00 77 1017.5
20260903035550 80 159 1.0 4.0 0.00 0.00 0.00 77 1017.4
20260903035051 80 146 1.0 4.0 0.00 0.00 0.00 77 1017.5
20260903034813 81 136 1.0 4.0 0.00 0.00 0.00 77 1018.5
20260903034526 80 148 1.0 4.0 0.00 0.00 0.00 76 1017.5
20260903034016 80 168 1.0 4.0 0.00 0.00 0.00 76 1017.4
20260903033512 81 127 1.0 4.0 0.00 0.00 0.00 76 1017.4
20260903033326 81 136 2.0 4.0 0.00 0.00 0.00 76 1018.5
20260903033009 81 142 1.0 4.0 0.00 0.00 0.00 75 1017.4
20260903032509 81 138 2.0 5.0 0.00 0.00 0.00 75 1017.4
20260903032058 81 130 1.0 4.0 0.00 0.00 0.00 75 1017.5
20260903032003 81 159 2.0 4.0 0.00 0.00 0.00 75 1017.4
20260903031817 82 138 2.0 4.0 0.00 0.00 0.00 75 1018.4
20260903031557 81 152 1.0 4.0 0.00 0.00 0.00 75 1017.4
20260903031059 81 142 1.0 5.0 0.00 0.00 0.00 74 1017.4
20260903030552 81 137 2.0 6.0 0.00 0.00 0.00 74 1017.5
20260903030326 82 128 3.0 6.0 0.00 0.00 0.00 74 1018.5
20260903030049 81 103 3.0 6.0 0.00 0.00 0.00 74 1017.5
20260903025539 82 169 1.0 8.0 0.00 0.00 0.00 74 1017.4
20260903025034 82 144 3.0 5.0 0.00 0.00 0.00 73 1017.5
20260903024831 82 147 2.0 5.0 0.00 0.00 0.00 73 1018.5
20260903024535 82 124 1.0 4.0 0.00 0.00 0.00 73 1017.5
20260903024033 82 131 1.0 4.0 0.00 0.00 0.00 73 1017.5
20260903023525 82 116 1.0 4.0 0.00 0.00 0.00 73 1017.5
20260903023338 82 160 3.0 4.0 0.00 0.00 0.00 73 1018.5
20260903023055 81 167 2.0 4.0 0.00 0.00 0.00 74 1017.5
20260903022550 81 142 1.0 4.0 0.00 0.00 0.00 75 1017.4
20260903022042 81 154 1.0 3.0 0.00 0.00 0.00 76 1017.5
20260903021842 82 101 1.0 2.0 0.00 0.00 0.00 75 1018.5
20260903021521 81 101 0.0 2.0 0.00 0.00 0.00 75 1017.5
20260903021014 81 96 0.0 2.0 0.00 0.00 0.00 76 1017.6
20260903020514 82 69 0.0 0.0 0.00 0.00 0.00 75 1017.5
20260903020328 82 59 0.0 0.0 0.00 0.00 0.00 75 1018.4
20260903020028 82 59 0.0 0.0 0.00 0.00 0.00 75 1017.5
20260903015507 82 59 0.0 0.0 0.00 0.00 0.00 74 1017.4
20260903015101 82 59 0.0 0.0 0.00 0.00 0.00 74 1017.3
20260903015003 82 59 0.0 0.0 0.00 0.00 0.00 74 1017.2
20260903014813 83 59 0.0 0.0 0.00 0.00 0.00 74 1018.1
20260903014604 82 59 0.0 0.0 0.00 0.00 0.00 74 1017.1
20260903014059 82 59 0.0 0.0 0.00 0.00 0.00 73 1017.1
20260903013549 82 59 0.0 0.0 0.00 0.00 0.00 73 1017.2
20260903013341 83 59 0.0 0.0 0.00 0.00 0.00 73 1018.2
20260903013024 83 59 0.0 0.0 0.00 0.00 0.00 74 1017.2
20260903012524 83 59 0.0 0.0 0.00 0.00 0.00 74 1017.2
20260903012018 83 59 0.0 0.0 0.00 0.00 0.00 73 1017.1
20260903011825 84 59 0.0 0.0 0.00 0.00 0.00 73 1018.1
20260903011516 83 59 0.0 0.0 0.00 0.00 0.00 72 1017.0
20260903011015 84 59 0.0 0.0 0.00 0.00 0.00 72 1017.1
20260903010515 84 59 0.0 0.0 0.00 0.00 0.00 71 1017.0
20260903010331 85 59 0.0 0.0 0.00 0.00 0.00 71 1018.0
20260903010009 84 59 0.0 0.0 0.00 0.00 0.00 71 1017.0
20260903005507 85 59 0.0 0.0 0.00 0.00 0.00 70 1016.9
20260903005100 85 59 0.0 0.0 0.00 0.00 0.00 69 1016.8
20260903005004 85 59 0.0 0.0 0.00 0.00 0.00 69 1016.8
20260903004817 86 59 0.0 0.0 0.00 0.00 0.00 69 1017.7
20260903004506 85 59 0.0 0.0 0.00 0.00 0.00 68 1016.9
20260903004010 86 59 0.0 0.0 0.00 0.00 0.00 67 1016.9
20260903003512 86 59 0.0 1.0 0.00 0.00 0.00 67 1016.8
20260903003324 87 59 0.0 1.0 0.00 0.00 0.00 67 1017.7
20260903003014 86 59 0.0 1.0 0.00 0.00 0.00 66 1016.8
20260903002521 87 59 0.0 0.0 0.00 0.00 0.00 65 1016.7
20260903002026 87 59 0.0 0.0 0.00 0.00 0.00 65 1016.6
20260903001829 87 59 0.0 0.0 0.00 0.00 0.00 64 1017.5
20260903001532 87 59 0.0 0.0 0.00 0.00 0.00 64 1016.5
20260903001030 88 59 0.0 1.0 0.00 0.00 0.00 64 1016.4
20260903000534 88 59 0.0 1.0 0.00 0.00 0.00 63 1016.3
20260903000318 88 59 0.0 2.0 0.00 0.00 0.00 63 1017.3
20260903000042 88 59 0.0 2.0 0.00 0.00 0.00 62 1016.3
20260902235540 88 59 0.0 2.0 0.00 0.00 0.00 62 1016.4
20260902235043 89 65 0.0 2.0 0.00 0.00 0.00 60 1016.4
20260902234823 90 66 0.0 2.0 0.00 0.00 0.00 61 1017.3
20260902234550 89 66 0.0 2.0 0.00 0.00 0.00 60 1016.4
20260902234054 89 77 0.0 2.0 0.00 0.00 0.00 59 1016.4
20260902233558 90 64 0.0 3.0 0.00 0.00 0.00 58 1016.4
20260902233503 90 64 0.0 4.0 0.00 0.00 0.00 58 1016.4
20260902233330 90 64 0.0 4.0 0.00 0.00 0.00 58 1017.4
20260902233103 90 53 0.0 4.0 0.00 0.00 0.00 58 1016.3
20260902232555 90 91 1.0 3.0 0.00 0.00 0.00 57 1016.4
20260902232050 91 90 0.0 4.0 0.00 0.00 0.00 56 1016.4
20260902231832 91 31 0.0 4.0 0.00 0.00 0.00 57 1017.3
20260902231553 91 92 0.0 4.0 0.00 0.00 0.00 56 1016.3
20260902231044 91 84 0.0 4.0 0.00 0.00 0.00 56 1016.3
20260902230552 91 67 0.0 4.0 0.00 0.00 0.00 56 1016.3
20260902230317 92 107 1.0 5.0 0.00 0.00 0.00 55 1017.3
20260902230049 91 85 0.0 5.0 0.00 0.00 0.00 55 1016.2
20260902225542 92 37 1.0 5.0 0.00 0.00 0.00 55 1016.3
20260902225043 92 84 0.0 4.0 0.00 0.00 0.00 56 1016.4
20260902224819 92 78 0.0 8.0 0.00 0.00 0.00 55 1017.4
20260902224541 92 72 2.0 8.0 0.00 0.00 0.00 55 1016.5
20260902224034 92 86 2.0 5.0 0.00 0.00 0.00 54 1016.4
20260902223530 92 107 2.0 6.0 0.00 0.00 0.00 54 1016.4
20260902223344 92 73 1.0 6.0 0.00 0.00 0.00 56 1017.4
20260902223007 91 34 2.0 6.0 0.00 0.00 0.00 55 1016.4
20260902222505 91 79 2.0 4.0 0.00 0.00 0.00 56 1016.5
20260902222056 91 38 2.0 4.0 0.00 0.00 0.00 55 1016.6
20260902222000 91 122 2.0 4.0 0.00 0.00 0.00 54 1016.6
20260902221848 92 112 2.0 4.0 0.00 0.00 0.00 56 1017.6
20260902221547 91 30 1.0 4.0 0.00 0.00 0.00 56 1016.6
20260902221033 92 43 2.0 5.0 0.00 0.00 0.00 55 1016.6
20260902220522 92 37 1.0 6.0 0.00 0.00 0.00 55 1016.6
20260902220321 93 107 1.0 6.0 0.00 0.00 0.00 55 1017.6
20260902220018 92 36 3.0 6.0 0.00 0.00 0.00 54 1016.5
20260902215517 93 138 2.0 6.0 0.00 0.00 0.00 54 1016.4
20260902215012 93 43 2.0 8.0 0.00 0.00 0.00 53 1016.4
20260902214830 93 108 2.0 8.0 0.00 0.00 0.00 53 1017.4
20260902214510 93 66 4.0 8.0 0.00 0.00 0.00 53 1016.3
20260902214006 93 97 1.0 6.0 0.00 0.00 0.00 53 1016.5
20260902213504 93 360 2.0 5.0 0.00 0.00 0.00 52 1016.4
20260902213319 94 19 3.0 9.0 0.00 0.00 0.00 52 1017.5
20260902213059 93 99 2.0 9.0 0.00 0.00 0.00 52 1016.6
20260902212554 93 20 2.0 9.0 0.00 0.00 0.00 54 1016.5
20260902212050 93 60 1.0 10.0 0.00 0.00 0.00 53 1016.6
20260902211824 93 81 2.0 10.0 0.00 0.00 0.00 54 1017.6
20260902211555 93 40 4.0 10.0 0.00 0.00 0.00 52 1016.6
20260902211040 93 85 4.0 10.0 0.00 0.00 0.00 53 1016.7
20260902210540 93 121 2.0 9.0 0.00 0.00 0.00 52 1016.7
20260902210316 94 14 3.0 9.0 0.00 0.00 0.00 51 1017.6
20260902210036 93 79 3.0 9.0 0.00 0.00 0.00 51 1016.7
20260902205529 93 51 2.0 8.0 0.00 0.00 0.00 52 1016.7
20260902205032 93 74 3.0 8.0 0.00 0.00 0.00 52 1016.7
20260902204825 93 82 3.0 8.0 0.00 0.00 0.00 53 1017.8
20260902204524 93 57 2.0 8.0 0.00 0.00 0.00 52 1016.8
20260902204022 93 38 3.0 6.0 0.00 0.00 0.00 53 1016.8
20260902203517 93 51 1.0 8.0 0.00 0.00 0.00 52 1016.7
20260902203319 93 13 2.0 8.0 0.00 0.00 0.00 52 1017.7
20260902203013 93 96 3.0 8.0 0.00 0.00 0.00 54 1016.9
20260902202510 93 9 2.0 9.0 0.00 0.00 0.00 51 1016.9
20260902202006 93 105 3.0 9.0 0.00 0.00 0.00 53 1016.9
20260902201831 93 84 3.0 9.0 0.00 0.00 0.00 53 1018.0
20260902201600 93 109 4.0 9.0 0.00 0.00 0.00 51 1017.0
20260902201505 93 117 4.0 8.0 0.00 0.00 0.00 52 1017.0
20260902201057 93 122 2.0 9.0 0.00 0.00 0.00 54 1017.0
20260902200556 93 165 3.0 9.0 0.00 0.00 0.00 53 1017.1
20260902200325 93 53 4.0 9.0 0.00 0.00 0.00 53 1018.1
20260902200052 93 40 1.0 9.0 0.00 0.00 0.00 55 1017.1
20260902195555 93 61 1.0 9.0 0.00 0.00 0.00 54 1017.2
20260902195055 93 111 2.0 8.0 0.00 0.00 0.00 53 1017.2
20260902194832 93 71 3.0 8.0 0.00 0.00 0.00 52 1018.2
20260902193540 93 107 1.0 8.0 0.00 0.00 0.00 53 1017.4
20260902193331 93 116 3.0 8.0 0.00 0.00 0.00 51 1018.4
20260902193044 93 43 3.0 8.0 0.00 0.00 0.00 53 1017.5
20260902192536 92 87 1.0 7.0 0.00 0.00 0.00 57 1017.6
20260902192035 92 132 2.0 6.0 0.00 0.00 0.00 55 1017.7
20260902191847 92 37 3.0 6.0 0.00 0.00 0.00 54 1018.7
20260902191515 92 115 1.0 5.0 0.00 0.00 0.00 55 1017.8
20260902191006 91 17 2.0 7.0 0.00 0.00 0.00 54 1017.8
20260902190603 92 150 3.0 8.0 0.00 0.00 0.00 52 1017.8
20260902190502 92 53 2.0 8.0 0.00 0.00 0.00 53 1018.0
20260902190318 93 20 2.0 10.0 0.00 0.00 0.00 54 1018.9
20260902190056 93 51 3.0 10.0 0.00 0.00 0.00 53 1017.9
20260902185552 93 130 4.0 10.0 0.00 0.00 0.00 53 1018.0
20260902185048 93 138 3.0 9.0 0.00 0.00 0.00 51 1018.1
20260902184828 93 113 4.0 9.0 0.00 0.00 0.00 52 1019.1
20260902184548 92 132 4.0 9.0 0.00 0.00 0.00 53 1018.0
20260902184044 92 49 2.0 9.0 0.00 0.00 0.00 55 1018.0
20260902183542 92 70 3.0 9.0 0.00 0.00 0.00 55 1018.1
20260902183322 93 123 3.0 6.0 0.00 0.00 0.00 54 1019.1
20260902183051 92 112 1.0 6.0 0.00 0.00 0.00 57 1018.2